[[{"header":{"parameterUnit":"m.s-1","parameterCategory":1,"la1":30.2991,"la2":30.254,"lo1":-89.0895,"lo2":-89.0444,"dy":0.0017,"dx":0.0017,"nx":28,"ny":28,"refTime":"2024-05-25T09:00:00:Z","depth":0,"parameterNumber":2,"parameterNumberName":"U-component_of_WINDS"},"data":[0,0,0,0,0,0,0,0,0,0,0,0,0,0,0,0,0,0,0,0,0,0,0,0,0,0,0,0,0,0,0,0,0,0,0,0,0,0,0,0,0,0,0,0,0,0,0,0,0,0,0,0,0,0,0,0,0,0,0.0713,0.0713,0,0.0749,0.0749,0.075,0.0764,0.0764,0.0764,0.0764,0.08,0.0801,0.0802,0,0,0,0,0,0,0,0,0,0,0,0,0,0.0654,0.0655,0.0713,0.0713,0.0714,0.0749,0.0749,0.075,0.0764,0.0764,0.0764,0.0764,0.08,0.0801,0.0802,0,0,0,0,0,0,0,0,0,0,0,0,0,0.0684,0.0655,0.0713,0.0725,0.0727,0.0749,0.0749,0.075,0.0764,0.0764,0.0764,0.0764,0.0799,0.0801,0.0802,0.0814,0,0,0.0807,0.0808,0,0,0,0,0,0,0,0,0.0682,0.0686,0.0723,0.0724,0.0726,0.0752,0.0742,0.0771,0.0764,0.075,0.0764,0.0764,0.0784,0.0787,0.0794,0.0816,0.0818,0.0807,0.0808,0.0809,0.0809,0,0,0,0,0,0,0,0.068,0.0684,0.0727,0.0723,0.0725,0.0728,0.0732,0.0747,0.0767,0.0751,0.0752,0.0757,0.0785,0.0792,0.0795,0.0818,0.0807,0.0809,0.081,0.081,0.0849,0.0849,0,0,0,0,0,0,0.0676,0.0683,0.0726,0.0728,0.0703,0.0729,0.0734,0.0744,0.0767,0.0771,0.0757,0.0757,0.079,0.0793,0.0796,0.081,0.0809,0.081,0.0811,0.0849,0.0849,0.085,0,0,0,0,0,0,0.0675,0.068,0.0724,0.0706,0.0711,0.073,0.0741,0.0744,0.0752,0.0771,0.0775,0.0761,0.079,0.0794,0.0809,0.0812,0.0811,0.0813,0.0849,0.0849,0.0849,0.084,0,0,0,0,0,0,0.0673,0.0679,0.0685,0.0706,0.0712,0.0738,0.0742,0.0745,0.0755,0.0756,0.0776,0.0779,0.079,0.0807,0.0811,0.0814,0.0814,0.0849,0.0849,0.0849,0.084,0.0839,0.0839,0,0,0,0,0,0.0671,0.0681,0.0685,0.069,0.072,0.0738,0.0742,0.0754,0.0755,0.076,0.0772,0.0779,0.0811,0.0808,0.0813,0.0817,0.0849,0.0849,0.0849,0.084,0.0839,0.0839,0,0,0,0,0,0,0.066,0.0684,0.0689,0.0706,0.072,0.074,0.0747,0.0754,0.0767,0.0768,0.0782,0.0787,0.08,0.081,0.0807,0.0828,0.083,0.0831,0.0821,0.0821,0.0821,0.0818,0.0815,0,0,0,0,0,0.066,0.0673,0.0693,0.0706,0.0712,0.0728,0.0737,0.0745,0.076,0.0766,0.0779,0.0792,0.0805,0.0814,0.0827,0.0841,0.0845,0.0845,0.0845,0.0845,0.0846,0.0852,0.0852,0.085,0.085,0.085,0,0,0.0659,0.0674,0.0681,0.0704,0.0716,0.0728,0.0733,0.0747,0.0755,0.0768,0.0783,0.0792,0.0808,0.0822,0.0829,0.0831,0.0847,0.0845,0.0845,0.0846,0.0852,0.0852,0.0852,0.085,0.085,0.085,0,0,0.0664,0.0677,0.0688,0.0699,0.0717,0.0727,0.0729,0.0749,0.0756,0.0771,0.078,0.079,0.0813,0.0823,0.0831,0.0837,0.0844,0.0841,0.084,0.0845,0.0846,0.0846,0.0847,0.0847,0.0842,0.0842,0.0842,0,0.0661,0.068,0.0693,0.0706,0.0715,0.0726,0.0736,0.0746,0.0767,0.0773,0.0774,0.0801,0.0813,0.0829,0.083,0.0837,0.0839,0.0839,0.0845,0.0845,0.0845,0.0846,0.0847,0.0842,0.0842,0.0842,0.0842,0,0.0675,0.0688,0.0695,0.0714,0.0724,0.0736,0.0749,0.0757,0.0764,0.0774,0.0788,0.0802,0.0817,0.0822,0.0829,0.0838,0.0838,0.0842,0.0844,0.0845,0.0846,0.0847,0.0841,0.0841,0.0841,0.0841,0,0,0.0676,0.07,0.0703,0.071,0.0729,0.0739,0.075,0.0765,0.0771,0.0784,0.0793,0.0811,0.0814,0.0823,0.0831,0.0837,0.0839,0.0839,0.084,0.0838,0.0848,0.0845,0.0845,0.0843,0.0843,0.0843,0.0846,0,0.0683,0.0704,0.0714,0.073,0.0741,0.0751,0.076,0.0772,0.0781,0.0791,0.0801,0.0812,0.0816,0.0821,0.0827,0.0837,0.0841,0.0837,0.085,0.0851,0.0846,0.0846,0.0843,0.0846,0.0847,0.0847,0.0847,0,0.0694,0.0706,0.0723,0.0739,0.0744,0.0752,0.0765,0.0775,0.0788,0.0794,0.0803,0.0811,0.0822,0.0823,0.0837,0.0834,0.084,0.0846,0.0846,0.0848,0.0849,0.0847,0.0847,0.0847,0.0848,0.0848,0.0848,0,0.0691,0.0712,0.0724,0.0731,0.075,0.0755,0.0763,0.0776,0.0783,0.0795,0.0799,0.0812,0.0819,0.0828,0.0838,0.0838,0.085,0.0853,0.0855,0.0854,0.0857,0.0857,0.0857,0.0861,0.0861,0.0861,0.0861,0,0.0698,0.0707,0.0723,0.0731,0.0741,0.0753,0.0763,0.0771,0.0782,0.079,0.0799,0.0807,0.082,0.0829,0.0837,0.0847,0.085,0.0854,0.0856,0.0853,0.0853,0.0857,0.0857,0.0862,0.0861,0.0861,0.0861,0,0.0697,0.0708,0.0722,0.0738,0.0742,0.0749,0.0762,0.0769,0.0777,0.0788,0.0791,0.0804,0.0815,0.0826,0.0841,0.0846,0.0855,0.0858,0.0851,0.0852,0.0853,0.0852,0.0856,0.0857,0.086,0.086,0.086,0,0.07,0.0707,0.0724,0.073,0.0737,0.0748,0.0755,0.0766,0.0773,0.0787,0.0792,0.0803,0.0813,0.0829,0.084,0.0851,0.0854,0.0854,0.0855,0.0852,0.0853,0.0852,0.0852,0.0854,0.0854,0.0854,0.0854,0,0.0704,0.0709,0.0719,0.0731,0.0739,0.0749,0.0759,0.0763,0.0776,0.0783,0.0794,0.0802,0.0816,0.0827,0.0838,0.0846,0.0851,0.0853,0.0854,0.0851,0.0846,0.0848,0.0849,0.0853,0.0853,0.0853,0.0853,0.0853,0.0705,0.0711,0.0723,0.0734,0.0742,0.0751,0.0758,0.0766,0.0776,0.0788,0.0794,0.0804,0.0815,0.0831,0.0838,0.0846,0.0848,0.0849,0.0849,0.085,0.0848,0.0845,0.0848,0.0848,0.0848,0.0848,0.0848,0,0.0708,0.0716,0.0726,0.0739,0.0747,0.0751,0.0762,0.0768,0.0777,0.0787,0.0796,0.0807,0.0817,0.0828,0.0838,0.0842,0.0845,0.0844,0.0844,0.0845,0.0847,0.0845,0.0842,0.0842,0.0842,0.0842,0.0842,0.0842,0.0711,0.0722,0.0727,0.0741,0.0749,0.0759,0.0765,0.0772,0.078,0.0792,0.08,0.0807,0.0817,0.0827,0.0836,0.0839,0.0842,0.084,0.0844,0.0845,0.0845,0.0846,0.0844,0.0841,0.0841,0.0842,0.0842,0.0842]},{"header":{"parameterUnit":"m.s-1","parameterCategory":1,"la1":30.2991,"la2":30.254,"lo1":-89.0895,"lo2":-89.0444,"dy":0.0017,"dx":0.0017,"nx":28,"ny":28,"refTime":"2024-05-25T09:00:00:Z","depth":0,"parameterNumber":3,"parameterNumberName":"V-component_of_WINDS"},"data":[0,0,0,0,0,0,0,0,0,0,0,0,0,0,0,0,0,0,0,0,0,0,0,0,0,0,0,0,0,0,0,0,0,0,0,0,0,0,0,0,0,0,0,0,0,0,0,0,0,0,0,0,0,0,0,0,0,0,5.4395,5.4394,0,5.4357,5.4357,5.4356,5.4252,5.425,5.4248,5.4246,5.421,5.4211,5.4213,0,0,0,0,0,0,0,0,0,0,0,0,0,5.4379,5.438,5.4395,5.4394,5.4394,5.4357,5.4357,5.4356,5.4253,5.425,5.4247,5.4245,5.421,5.4211,5.4213,0,0,0,0,0,0,0,0,0,0,0,0,0,5.4368,5.438,5.4395,5.4338,5.4332,5.4357,5.4357,5.4356,5.4253,5.425,5.4247,5.4244,5.421,5.4211,5.4213,5.4291,0,0,5.4218,5.4219,0,0,0,0,0,0,0,0,5.4369,5.4369,5.4346,5.4342,5.4335,5.4306,5.4338,5.4334,5.4254,5.4283,5.4246,5.4242,5.4245,5.4244,5.4244,5.429,5.4288,5.4218,5.4219,5.422,5.4221,0,0,0,0,0,0,0,5.437,5.437,5.438,5.4346,5.434,5.4315,5.4309,5.4337,5.4284,5.4281,5.4273,5.427,5.4241,5.4243,5.4243,5.4288,5.4218,5.422,5.4221,5.4222,5.4395,5.4399,0,0,0,0,0,0,5.4378,5.4371,5.4381,5.4379,5.4344,5.4318,5.4312,5.4319,5.4283,5.4274,5.4273,5.4265,5.4241,5.4241,5.4241,5.433,5.422,5.4222,5.4223,5.4392,5.4396,5.44,0,0,0,0,0,0,5.4378,5.438,5.4382,5.4373,5.4371,5.4322,5.433,5.432,5.4321,5.4277,5.4267,5.4284,5.4239,5.4238,5.4279,5.4327,5.4223,5.4224,5.4387,5.4393,5.4398,5.4508,0,0,0,0,0,0,5.4378,5.4381,5.4409,5.4374,5.4372,5.4421,5.4333,5.4322,5.4324,5.4314,5.4285,5.4277,5.4236,5.4277,5.4281,5.4327,5.4225,5.4383,5.439,5.4396,5.45,5.4517,5.4531,0,0,0,0,0,5.4378,5.4443,5.4411,5.4413,5.4407,5.4424,5.4423,5.4374,5.4328,5.4357,5.4329,5.4278,5.4322,5.4282,5.4286,5.4333,5.438,5.4388,5.4396,5.4493,5.4514,5.4531,0,0,0,0,0,0,5.4486,5.4437,5.4402,5.4457,5.4445,5.4406,5.4441,5.4397,5.4399,5.4389,5.4329,5.4323,5.4373,5.4357,5.4314,5.4407,5.4342,5.4351,5.4415,5.4434,5.4449,5.4452,5.4227,0,0,0,0,0,5.4516,5.4533,5.449,5.4543,5.4538,5.4491,5.4497,5.446,5.4446,5.4441,5.4415,5.4405,5.4415,5.4424,5.4432,5.4498,5.449,5.4533,5.4548,5.4561,5.4569,5.4603,5.4621,5.4426,5.4426,5.4426,0,0,5.4578,5.4554,5.4568,5.4564,5.455,5.457,5.4488,5.4512,5.4526,5.4445,5.4481,5.4463,5.4446,5.45,5.4522,5.4489,5.4622,5.4571,5.4582,5.4583,5.4613,5.4631,5.4648,5.4432,5.4431,5.443,0,0,5.4702,5.4685,5.4727,5.4715,5.4695,5.4663,5.4674,5.4642,5.4626,5.4661,5.46,5.4617,5.4638,5.4628,5.4627,5.4747,5.47,5.4752,5.4832,5.4865,5.4881,5.4894,5.4937,5.4953,5.476,5.4761,5.4761,0,5.4782,5.4808,5.4754,5.4782,5.4782,5.4708,5.475,5.4742,5.4727,5.4729,5.4691,5.4715,5.4699,5.4749,5.4779,5.478,5.479,5.4754,5.4883,5.4896,5.4907,5.4947,5.4964,5.4767,5.4766,5.4766,5.4765,0,5.4907,5.4927,5.4963,5.4949,5.4953,5.4988,5.494,5.4951,5.4914,5.4887,5.4924,5.4902,5.4904,5.4914,5.4879,5.496,5.4939,5.4893,5.4826,5.4933,5.497,5.4984,5.4776,5.4774,5.4772,5.477,0,0,5.5096,5.5052,5.5066,5.5059,5.5032,5.5046,5.5079,5.508,5.509,5.5083,5.5108,5.5128,5.5085,5.5083,5.5046,5.5076,5.5172,5.5026,5.5025,5.5053,5.526,5.5294,5.5312,5.5141,5.5144,5.5146,5.5261,0,5.5212,5.5263,5.5216,5.5276,5.5294,5.5225,5.5253,5.524,5.5216,5.5227,5.5201,5.5215,5.5158,5.5156,5.5182,5.5155,5.5213,5.5146,5.5165,5.5166,5.517,5.5332,5.5368,5.5477,5.5275,5.5277,5.5279,0,5.5354,5.5351,5.5414,5.5383,5.5388,5.5414,5.5411,5.5424,5.5408,5.5388,5.5387,5.5342,5.5372,5.5308,5.5349,5.5304,5.531,5.5298,5.5301,5.53,5.5229,5.5335,5.551,5.5527,5.5301,5.5299,5.5298,0,5.5484,5.5497,5.5536,5.5532,5.5497,5.5517,5.5504,5.5485,5.5489,5.5487,5.5489,5.5491,5.5493,5.5496,5.5453,5.541,5.55,5.5432,5.5485,5.5486,5.5506,5.5505,5.5684,5.5511,5.5511,5.551,5.551,0,5.5618,5.5659,5.5594,5.5618,5.5662,5.5607,5.5653,5.5632,5.5616,5.5636,5.5577,5.5596,5.5539,5.5553,5.552,5.5559,5.5561,5.5546,5.5536,5.5551,5.5552,5.5552,5.5544,5.5515,5.5514,5.5513,5.5512,0,5.5771,5.5729,5.5767,5.5731,5.5723,5.5757,5.5726,5.5747,5.5719,5.5744,5.5747,5.5704,5.5717,5.5675,5.5682,5.566,5.5717,5.5695,5.5722,5.5715,5.577,5.5765,5.5955,5.5977,5.579,5.5792,5.5794,0,5.5858,5.5888,5.5855,5.5863,5.5853,5.5867,5.587,5.5819,5.5825,5.581,5.5833,5.5841,5.5845,5.587,5.5839,5.5844,5.5822,5.5888,5.5823,5.5836,5.5823,5.5821,5.5824,5.5902,5.5904,5.5906,5.5908,0,5.6018,5.5996,5.6002,5.6002,5.6007,5.6005,5.5998,5.6009,5.5953,5.5964,5.5976,5.5979,5.5986,5.5995,5.5994,5.5981,5.5936,5.5929,5.5941,5.5955,5.5969,5.5962,5.5758,5.5924,5.5923,5.5921,5.5921,5.592,5.614,5.6163,5.6143,5.6153,5.6142,5.6138,5.6155,5.6129,5.6138,5.6139,5.6109,5.6128,5.6112,5.6105,5.6097,5.6112,5.6081,5.61,5.6104,5.6109,5.6118,5.5968,5.6112,5.6111,5.6111,5.611,5.611,0,5.6296,5.628,5.6289,5.6281,5.6289,5.6245,5.6236,5.6245,5.6262,5.6251,5.6256,5.6271,5.628,5.625,5.6255,5.6272,5.6252,5.6275,5.6273,5.6271,5.6145,5.6134,5.6292,5.6292,5.6292,5.6292,5.6292,5.6292,5.6378,5.6414,5.639,5.6421,5.6405,5.6422,5.642,5.6416,5.6407,5.6426,5.6432,5.6412,5.6394,5.6397,5.6404,5.6395,5.6399,5.643,5.6414,5.6297,5.628,5.6263,5.6252,5.6432,5.6432,5.6538,5.6539,5.654]}]]